LogID,LogEntryDate,LogEntryTime,LogEntrySeconds,LogNotes,AFR,STFT,CurrentLTFT,CruiseLTFT,IdleLTFT,IPW,O2Sensor2,Load,AFRMAP,LoadTiming,TimingAdv,KnockSum,RPM,IDC,Baro,MAP,Boost,OmniMAP,OmniBoost,WGDC_Active,MAF,InVVTtarget,ExVVTtarget,InVVTactual,ExVVTactual,TPS,APP,IAT,WGDCCorr,Speed,Battery,ECT,MAT,MAPCalcs,IMAPCalcs,MAFCalcs,ChosenCalc,EthanolPercent,Custom
1,2019-05-19,10:51:48.90092,0.23907,,0,0,-0.1953125,-11.1328125,-0.1953125,0,0,10.9375,14.7,10.9375,-10,0,3007.8125,0,14.28621739,3.6665022,-10.61971519,4.4517,-9.83451739,0,1.549032,10.625,0,9.84375,-0.78125,14.5098039215686,9.61176470588235,77,0,33.561,14.51934,179.6,80.6,12.5,0,10.9375,10.9375,78.0392156862745,
2,2019-05-19,10:51:48.91655,0.25146,,0,0,-0.1953125,-11.1328125,-0.1953125,0,0,10.9375,14.7,10.9375,-10,0,3007.8125,0,14.28621739,3.6665022,-10.61971519,4.4517,-9.83451739,0,1.549032,10.625,0,9.84375,-0.78125,14.5098039215686,9.61176470588235,77,0,33.561,14.51934,179.6,80.6,12.5,0,10.9375,10.9375,78.0392156862745,
3,2019-05-19,10:51:48.93229,0.26611,,0,0,-0.1953125,-11.1328125,-0.1953125,0,0,10.9375,14.7,10.9375,-10,0,3007.8125,0,14.28621739,3.6665022,-10.61971519,4.4517,-9.83451739,0,1.549032,10.625,0,9.84375,-0.78125,14.5098039215686,9.61176470588235,77,0,33.561,14.51934,179.6,80.6,12.5,0,10.9375,10.9375,78.0392156862745,
4,2019-05-19,10:51:48.96341,0.28911,,0,0,-0.1953125,-11.1328125,-0.1953125,0,0,10.9375,14.7,10.9375,-10,0,3000,0,14.28621739,3.6665022,-10.61971519,4.4517,-9.83451739,0,1.549032,10.625,0,9.6875,-0.78125,14.5098039215686,9.61176470588235,77,0,33.561,14.51934,179.6,80.6,12.5,0,10.9375,10.9375,78.0392156862745,
5,2019-05-19,10:51:48.99465,0.31891,,0,0,-0.1953125,-11.1328125,-0.1953125,0,0,10.9375,14.7,10.9375,-10,0,2992.1875,0,14.28621739,3.7629891,-10.52322829,4.56885,-9.71736739,0,1.56864,10.625,0,9.6875,-0.78125,14.5098039215686,9.61176470588235,77,0,33.561,14.51934,179.6,80.6,12.5,0,10.9375,10.9375,78.0392156862745,
6,2019-05-19,10:51:49.01030,0.34366,,0,0,-0.1953125,-11.1328125,-0.1953125,0,0,10.9375,14.7,10.9375,-10,0,2984.375,0,14.28621739,3.7629891,-10.52322829,4.56885,-9.71736739,0,1.56864,10.625,0,9.6875,-0.78125,14.5098039215686,9.61176470588235,77,0,33.561,14.51934,179.6,80.6,12.5,0,10.9375,10.9375,78.0392156862745,
7,2019-05-19,10:51:49.04152,0.36745,,0,0,-0.1953125,-11.1328125,-0.1953125,0,0,10.9375,14.7,10.9375,-10,0,2976.5625,0,14.28621739,3.7629891,-10.52322829,4.56885,-9.71736739,0,1.549032,10.625,0,9.6875,-0.78125,14.5098039215686,9.61176470588235,77,0,33.561,14.51934,179.6,80.6,12.5,0,10.9375,10.9375,78.0392156862745,
8,2019-05-19,10:51:49.05714,0.39096,,0,0,-0.1953125,-11.1328125,-0.1953125,0,0,10.9375,14.7,10.9375,-10,0,2968.75,0,14.28621739,3.7629891,-10.52322829,4.56885,-9.71736739,0,1.549032,10.625,0,9.6875,-0.78125,14.5098039215686,9.61176470588235,77,0,33.561,14.51934,179.6,80.6,12.5,0,10.9375,10.9375,78.0392156862745,
9,2019-05-19,10:51:49.08838,0.41407,,0,0,-0.1953125,-11.1328125,-0.1953125,0,0,10.9375,14.7,10.9375,-10,0,2960.9375,0,14.28621739,3.7629891,-10.52322829,4.56885,-9.71736739,0,1.509816,10.625,0,9.6875,-0.78125,14.5098039215686,9.61176470588235,77,0,33.561,14.59267,179.6,80.6,14.0625,0,10.9375,10.9375,78.0392156862745,
10,2019-05-19,10:51:49.10413,0.43446,,0,0,-0.1953125,-11.1328125,-0.1953125,0,0,10.9375,14.7,10.9375,-10,0,2945.3125,0,14.28621739,3.7629891,-10.52322829,4.56885,-9.71736739,0,1.509816,10.625,0,9.6875,-0.78125,14.5098039215686,9.61176470588235,77,0,33.561,14.59267,179.6,80.6,14.0625,0,9.375,10.9375,78.0392156862745,
11,2019-05-19,10:51:49.13524,0.4643,,0,0,-0.1953125,-11.1328125,-0.1953125,0,0,10.9375,14.7,10.9375,-10,0,2937.5,0,14.28621739,3.6665022,-10.61971519,4.4517,-9.83451739,0,1.4706,10.625,0,9.6875,-0.78125,14.5098039215686,9.61176470588235,77,0,33.561,14.59267,179.6,80.6,12.5,0,10.9375,10.9375,78.0392156862745,
12,2019-05-19,10:51:49.15087,0.4862,,0,0,-0.1953125,-11.1328125,-0.1953125,0,0,10.9375,14.7,10.9375,-10,0,2929.6875,0,14.28621739,3.6665022,-10.61971519,4.4517,-9.83451739,0,1.4706,10.625,0,9.6875,-0.78125,14.5098039215686,9.61176470588235,77,0,33.561,14.59267,179.6,80.6,14.0625,0,10.9375,10.9375,78.0392156862745,
13,2019-05-19,10:51:49.18211,0.51313,,0,0,-0.1953125,-11.1328125,-0.1953125,0,0,10.9375,14.7,10.9375,-10,0,2914.0625,0,14.28621739,3.6665022,-10.61971519,4.4517,-9.83451739,0,1.431384,10.625,0,9.6875,-0.78125,14.5098039215686,9.61176470588235,77,0,33.561,14.59267,179.6,80.6,14.0625,0,10.9375,10.9375,78.0392156862745,
14,2019-05-19,10:51:49.19773,0.53608,,0,0,-0.1953125,-11.1328125,-0.1953125,0,0,10.9375,14.7,10.9375,-10,0,2906.25,0,14.28621739,3.6665022,-10.61971519,4.4517,-9.83451739,0,1.431384,10.625,0,9.84375,-0.78125,14.5098039215686,9.61176470588235,77,0,33.561,14.59267,179.6,80.6,14.0625,0,10.9375,10.9375,78.0392156862745,
15,2019-05-19,10:51:49.22897,0.56767,,0,0,-0.1953125,-11.1328125,-0.1953125,0,0,10.9375,14.7,10.9375,-10,0,2890.625,0,14.28621739,3.7629891,-10.52322829,4.56885,-9.71736739,0,1.411776,10.625,0,9.84375,-0.78125,14.5098039215686,9.61176470588235,77,0,33.561,14.51934,179.6,80.6,14.0625,0,10.9375,10.9375,78.0392156862745,
16,2019-05-19,10:51:49.26021,0.58776,,0,0,-0.1953125,-11.1328125,-0.1953125,0,0,10.9375,14.7,10.9375,-10,0,2890.625,0,14.28621739,3.7629891,-10.52322829,4.56885,-9.71736739,0,1.411776,10.625,0,9.84375,-0.78125,14.5098039215686,9.61176470588235,77,0,33.561,14.51934,179.6,80.6,12.5,0,10.9375,10.9375,78.0392156862745,
17,2019-05-19,10:51:49.27584,0.61355,,0,0,-0.1953125,-11.1328125,-0.1953125,0,0,10.9375,14.7,10.9375,-10,0,2882.8125,0,14.28621739,3.7629891,-10.52322829,4.56885,-9.71736739,0,1.490208,10.625,0,9.84375,-0.78125,14.5098039215686,9.61176470588235,77,0,33.561,14.51934,179.6,80.6,12.5,0,9.375,10.9375,78.0392156862745,
18,2019-05-19,10:51:49.30708,0.63761,,0,0,-0.1953125,-11.1328125,-0.1953125,0,0,10.9375,14.7,10.9375,-10,0,2867.1875,0,14.28621739,3.7629891,-10.52322829,4.56885,-9.71736739,0,1.490208,10.625,0,9.84375,-0.78125,14.5098039215686,9.61176470588235,77,0,33.561,14.59267,179.6,80.6,12.5,0,10.9375,10.9375,78.0392156862745,
19,2019-05-19,10:51:49.33848,0.66365,,0,0,-0.1953125,-11.1328125,-0.1953125,0,0,10.9375,14.7,10.9375,-10,0,2851.5625,0,14.28621739,3.7629891,-10.52322829,4.56885,-9.71736739,0,1.588248,10.625,0,9.84375,-0.78125,14.5098039215686,9.61176470588235,77,0,33.561,14.59267,179.6,80.6,12.5,0,10.9375,10.9375,78.0392156862745,
20,2019-05-19,10:51:49.35394,0.68571,,0,0,-0.1953125,-11.1328125,-0.1953125,0,0,10.9375,14.7,10.9375,-10,0,2843.75,0,14.28621739,3.7629891,-10.52322829,4.56885,-9.71736739,0,1.588248,10.625,0,9.84375,-0.78125,14.1176470588235,9.61176470588235,77,0,33.561,14.59267,179.6,80.6,12.5,0,10.9375,10.9375,78.0392156862745,
21,2019-05-19,10:51:49.36956,0.7083,,0,0,-0.1953125,-11.1328125,-0.1953125,0,0,10.9375,14.7,10.9375,-10,0,2828.125,0,14.28621739,3.7629891,-10.52322829,4.56885,-9.71736739,0,1.529424,10.625,0,9.84375,-0.78125,14.1176470588235,9.61176470588235,77,0,31.075,14.51934,179.6,80.6,12.5,0,9.375,10.9375,78.0392156862745,
22,2019-05-19,10:51:49.40094,0.72569,,0,0,-0.1953125,-11.1328125,-0.1953125,0,0,10.9375,14.7,10.9375,-10,0,2828.125,0,14.28621739,3.7629891,-10.52322829,4.56885,-9.71736739,0,1.529424,10.625,0,9.6875,-0.78125,14.1176470588235,9.61176470588235,77,0,31.075,14.51934,179.6,80.6,12.5,0,10.9375,10.9375,78.0392156862745,
23,2019-05-19,10:51:49.41643,0.7506,,0,0,-0.1953125,-11.1328125,-0.1953125,0,0,10.9375,14.7,10.9375,-10,0,2828.125,0,14.28621739,3.6665022,-10.61971519,4.4517,-9.83451739,0,1.411776,10.625,0,9.6875,-0.78125,14.1176470588235,9.61176470588235,77,0,31.075,14.51934,179.6,80.6,12.5,0,9.375,10.9375,78.0392156862745,
24,2019-05-19,10:51:49.44770,0.77392,,0,0,-0.1953125,-11.1328125,-0.1953125,0,0,10.9375,14.7,10.9375,-10,0,2820.3125,0,14.28621739,3.6665022,-10.61971519,4.4517,-9.83451739,0,1.411776,10.625,0,9.6875,-0.625,14.1176470588235,9.61176470588235,77,0,31.075,14.51934,179.6,80.6,12.5,0,10.9375,10.9375,78.0392156862745,
25,2019-05-19,10:51:49.47904,0.80694,,0,0,-0.1953125,-11.1328125,-0.1953125,0,0,10.9375,14.7,10.9375,-10,0,2796.875,0,14.28621739,3.7629891,-10.52322829,4.56885,-9.71736739,0,1.450992,10.625,0,9.6875,-0.625,14.1176470588235,9.61176470588235,77,0,31.075,14.51934,179.6,80.6,12.5,0,9.375,10.9375,78.0392156862745,
26,2019-05-19,10:51:49.49454,0.82825,,0,0,-0.1953125,-11.1328125,-0.1953125,0,0,10.9375,14.7,10.9375,-10,0,2781.25,0,14.28621739,3.7629891,-10.52322829,4.56885,-9.71736739,0,1.450992,10.625,0,9.84375,-0.9375,14.1176470588235,9.61176470588235,77,0,31.075,14.51934,179.6,80.6,12.5,0,10.9375,10.9375,78.0392156862745,
27,2019-05-19,10:51:49.52591,0.85346,,0,0,-0.1953125,-11.1328125,-0.1953125,0,0,10.9375,14.7,10.9375,-10,0,2773.4375,0,14.28621739,3.7629891,-10.52322829,4.56885,-9.71736739,0,1.529424,10.625,0,9.84375,-0.9375,14.1176470588235,9.61176470588235,77,0,31.075,14.59267,179.6,80.6,12.5,0,9.375,9.375,78.0392156862745,
28,2019-05-19,10:51:49.54140,0.87702,,0,0,-0.1953125,-11.1328125,-0.1953125,0,0,10.9375,14.7,10.9375,-10,0,2765.625,0,14.28621739,3.7629891,-10.52322829,4.56885,-9.71736739,0,1.529424,10.625,0,9.84375,-0.78125,14.1176470588235,9.61176470588235,77,0,31.075,14.59267,179.6,80.6,14.0625,0,10.9375,9.375,78.0392156862745,
29,2019-05-19,10:51:49.57264,0.90043,,0,0,-0.1953125,-11.1328125,-0.1953125,0,0,10.9375,14.7,10.9375,-10,0,2773.4375,0,14.28621739,3.7629891,-10.52322829,4.56885,-9.71736739,0,1.450992,10.625,0,9.84375,-0.78125,14.1176470588235,9.61176470588235,77,0,31.075,14.59267,179.6,80.6,12.5,0,10.9375,9.375,78.0392156862745,
30,2019-05-19,10:51:49.58826,0.91813,,0,0,-0.1953125,-11.1328125,-0.1953125,0,0,10.9375,14.7,10.9375,-10,0,2773.4375,0,14.28621739,3.7629891,-10.52322829,4.56885,-9.71736739,0,1.450992,10.625,0,9.84375,-0.78125,14.1176470588235,9.61176470588235,77,0,31.075,14.51934,179.6,80.6,12.5,0,9.375,9.375,78.0392156862745,
31,2019-05-19,10:51:49.60404,0.93532,,0,0,-0.1953125,-11.1328125,-0.1953125,0,0,10.9375,14.7,10.9375,-10,0,2773.4375,0,14.28621739,3.7629891,-10.52322829,4.56885,-9.71736739,0,1.450992,10.625,0,9.84375,-0.78125,14.1176470588235,9.61176470588235,77,0,31.075,14.51934,179.6,80.6,12.5,0,9.375,9.375,78.0392156862745,
32,2019-05-19,10:51:49.63513,0.96324,,0,0,-0.1953125,-11.1328125,-0.1953125,0,0,10.9375,14.7,10.9375,-10,0,2757.8125,0,14.28621739,3.7629891,-10.52322829,4.56885,-9.71736739,0,1.450992,10.625,0,9.6875,-0.78125,14.1176470588235,9.61176470588235,77,0,31.075,14.51934,179.6,80.6,12.5,0,10.9375,9.375,78.0392156862745,
33,2019-05-19,10:51:49.65075,0.98813,,0,0,-0.1953125,-11.1328125,-0.1953125,0,0,10.9375,14.7,10.9375,-10,0,2742.1875,0,14.28621739,3.7629891,-10.52322829,4.56885,-9.71736739,0,1.529424,10.625,0,9.6875,-0.78125,14.1176470588235,9.61176470588235,77,0,31.075,14.51934,179.6,80.6,14.0625,0,10.9375,10.9375,78.0392156862745,
34,2019-05-19,10:51:49.68199,1.00995,,0,0,-0.1953125,-11.1328125,-0.1953125,0,0,10.9375,14.7,10.9375,-10,0,2726.5625,0,14.28621739,3.7629891,-10.52322829,4.56885,-9.71736739,0,1.529424,10.625,0,9.84375,-0.78125,14.1176470588235,9.61176470588235,77,0,31.075,14.51934,179.6,80.6,14.0625,0,10.9375,10.9375,78.0392156862745,
35,2019-05-19,10:51:49.69761,1.035,,0,0,-0.1953125,-11.1328125,-0.1953125,0,0,10.9375,14.7,10.9375,-10,0,2718.75,0,14.28621739,3.7629891,-10.52322829,4.56885,-9.71736739,0,1.431384,10.625,0,9.84375,-0.78125,14.1176470588235,9.61176470588235,77,0,31.075,14.51934,179.6,80.6,14.0625,0,9.375,10.9375,78.0392156862745,
36,2019-05-19,10:51:49.71323,1.04987,,0,0,-0.1953125,-11.1328125,-0.1953125,0,0,10.9375,14.7,10.9375,-10,0,2718.75,0,14.28621739,3.7629891,-10.52322829,4.56885,-9.71736739,0,1.431384,10.625,0,9.84375,-0.78125,14.1176470588235,9.61176470588235,77,0,31.075,14.51934,179.6,80.6,14.0625,0,10.9375,10.9375,78.0392156862745,
37,2019-05-19,10:51:49.74448,1.07478,,0,0,-0.1953125,-11.1328125,-0.1953125,0,0,10.9375,14.7,10.9375,-10,0,2726.5625,0,14.28621739,3.7629891,-10.52322829,4.56885,-9.71736739,0,1.529424,10.625,0,9.84375,-0.78125,14.1176470588235,9.61176470588235,77,0,31.075,14.51934,179.6,80.6,14.0625,0,10.9375,10.9375,78.0392156862745,
38,2019-05-19,10:51:49.76010,1.09807,,0,0,-0.1953125,-11.1328125,-0.1953125,0,0,10.9375,14.7,10.9375,-10,0,2718.75,0,14.28621739,3.7629891,-10.52322829,4.56885,-9.71736739,0,1.529424,10.625,0,9.84375,-0.78125,14.1176470588235,9.61176470588235,77,0,31.075,14.51934,179.6,80.6,14.0625,0,10.9375,10.9375,78.0392156862745,
39,2019-05-19,10:51:49.79134,1.12208,,0,0,-0.1953125,-11.1328125,-0.1953125,0,0,10.9375,14.7,10.9375,-10,0,2703.125,0,14.28621739,3.7629891,-10.52322829,4.56885,-9.71736739,0,1.450992,10.625,0,9.84375,-0.78125,14.1176470588235,9.61176470588235,77,0,31.075,14.44601,179.6,80.6,14.0625,0,9.375,10.9375,78.0392156862745,
40,2019-05-19,10:51:49.80696,1.14503,,0,0,-0.1953125,-11.1328125,-0.1953125,0,0,10.9375,14.7,10.9375,-10,0,2695.3125,0,14.28621739,3.7629891,-10.52322829,4.56885,-9.71736739,0,1.450992,10.625,0,9.84375,-0.78125,14.1176470588235,9.61176470588235,77,0,31.075,14.44601,179.6,80.6,14.0625,0,9.375,10.9375,78.0392156862745,
41,2019-05-19,10:51:49.83821,1.17636,,0,0,-0.1953125,-11.1328125,-0.1953125,0,0,10.9375,14.7,10.9375,-10,0,2679.6875,0,14.28621739,3.7629891,-10.52322829,4.56885,-9.71736739,0,1.490208,10.625,0,9.84375,-0.78125,14.1176470588235,9.61176470588235,77,0,31.075,14.44601,179.6,80.6,14.0625,0,10.9375,10.9375,78.0392156862745,
42,2019-05-19,10:51:49.86957,1.2019,,0,0,-0.1953125,-11.1328125,-0.1953125,0,0,10.9375,14.7,10.9375,-10,0,2671.875,0,14.28621739,3.7629891,-10.52322829,4.56885,-9.71736739,0,1.490208,10.625,0,9.84375,-0.78125,14.1176470588235,9.61176470588235,77,0,31.075,14.51934,179.6,80.6,14.0625,0,10.9375,10.9375,78.0392156862745,
43,2019-05-19,10:51:49.88507,1.22185,,0,0,-0.1953125,-11.1328125,-0.1953125,0,0,10.9375,14.7,10.9375,-10,0,2671.875,0,14.28621739,3.7629891,-10.52322829,4.56885,-9.71736739,0,1.4706,10.625,0,9.84375,-0.78125,14.1176470588235,9.61176470588235,77,0,31.075,14.51934,179.6,80.6,14.0625,0,10.9375,10.9375,78.0392156862745,
44,2019-05-19,10:51:49.91644,1.24283,,0,0,-0.1953125,-11.1328125,-0.1953125,0,0,10.9375,14.7,10.9375,-10,0,2671.875,0,14.28621739,3.7629891,-10.52322829,4.56885,-9.71736739,0,1.4706,10.625,0,9.84375,-0.78125,14.1176470588235,9.61176470588235,77,0,31.075,14.51934,179.6,80.6,14.0625,0,10.9375,10.9375,78.0392156862745,
45,2019-05-19,10:51:49.93193,1.26797,,0,0,-0.1953125,-11.1328125,-0.1953125,0,0,10.9375,14.7,10.9375,-10,0,2664.0625,0,14.28621739,3.7629891,-10.52322829,4.56885,-9.71736739,0,1.490208,10.625,0,9.84375,-0.78125,14.1176470588235,9.61176470588235,77,0,31.075,14.51934,179.6,80.6,14.0625,0,10.9375,10.9375,78.0392156862745,
46,2019-05-19,10:51:49.96318,1.29253,,0,0,-0.1953125,-11.1328125,-0.1953125,0,0,10.9375,14.7,10.9375,-10,0,2656.25,0,14.28621739,3.7629891,-10.52322829,4.56885,-9.71736739,0,1.490208,10.625,0,9.84375,-0.78125,14.1176470588235,9.61176470588235,77,0,31.075,14.51934,179.6,80.6,14.0625,0,10.9375,10.9375,78.0392156862745,
47,2019-05-19,10:51:49.97880,1.31787,,0,0,-0.1953125,-11.1328125,-0.1953125,0,0,10.9375,14.7,10.9375,-10,0,2640.625,0,14.28621739,3.7629891,-10.52322829,4.56885,-9.71736739,0,1.4706,10.625,0,9.84375,-0.78125,14.1176470588235,9.61176470588235,77,0,31.075,14.51934,179.6,80.6,14.0625,0,10.9375,10.9375,78.0392156862745,
48,2019-05-19,10:51:50.01019,1.34604,,0,0,-0.1953125,-11.1328125,-0.1953125,0,0,10.9375,14.7,10.9375,-10,0,2632.8125,0,14.28621739,3.7629891,-10.52322829,4.56885,-9.71736739,0,1.4706,10.625,0,9.84375,-0.78125,14.1176470588235,9.61176470588235,77,0,31.075,14.59267,179.6,80.6,14.0625,0,9.375,10.9375,78.0392156862745,
49,2019-05-19,10:51:50.04128,1.37152,,0,0,-0.1953125,-11.1328125,-0.1953125,0,0,10.9375,14.7,10.9375,-10,0,2625,0,14.28621739,3.7629891,-10.52322829,4.56885,-9.71736739,0,1.509816,10.625,0,9.84375,-0.78125,14.1176470588235,9.61176470588235,77,0,31.075,14.59267,179.6,80.6,14.0625,0,10.9375,10.9375,78.0392156862745,
50,2019-05-19,10:51:50.05705,1.39181,,0,0,-0.1953125,-11.1328125,-0.1953125,0,0,10.9375,14.7,10.9375,-10,0,2625,0,14.28621739,3.7629891,-10.52322829,4.56885,-9.71736739,0,1.509816,10.625,0,9.84375,-0.78125,14.1176470588235,9.61176470588235,77,0,31.075,14.59267,179.6,80.6,14.0625,0,9.375,10.9375,78.0392156862745,
51,2019-05-19,10:51:50.08815,1.41469,,0,0,-0.1953125,-11.1328125,-0.1953125,0,0,10.9375,14.7,10.9375,-10,0,2625,0,14.28621739,3.7629891,-10.52322829,4.56885,-9.71736739,0,1.4706,10.625,0,9.84375,-0.78125,14.1176470588235,9.61176470588235,77,0,28.589,14.51934,179.6,80.6,14.0625,0,10.9375,10.9375,78.0392156862745,
52,2019-05-19,10:51:50.10377,1.43783,,0,0,-0.1953125,-11.1328125,-0.1953125,0,0,10.9375,14.7,10.9375,-10,0,2609.375,0,14.28621739,3.7629891,-10.52322829,4.56885,-9.71736739,0,1.4706,10,0,9.84375,-0.78125,14.1176470588235,9.61176470588235,77,0,28.589,14.51934,179.6,80.6,14.0625,0,10.9375,10.9375,78.0392156862745,
53,2019-05-19,10:51:50.13501,1.46828,,0,0,-0.1953125,-11.1328125,-0.1953125,0,0,10.9375,14.7,10.9375,-10,0,2601.5625,0,14.28621739,3.859476,-10.42674139,4.686,-9.60021739,0,1.4706,10,0,9.84375,-0.78125,14.1176470588235,9.61176470588235,77,0,28.589,14.51934,179.6,80.6,14.0625,0,10.9375,10.9375,78.0392156862745,
54,2019-05-19,10:51:50.16638,1.49141,,0,0,-0.1953125,-11.1328125,-0.1953125,0,0,10.9375,14.7,10.9375,-10,0,2593.75,0,14.28621739,3.859476,-10.42674139,4.686,-9.60021739,0,1.4706,10,0,9.84375,-0.78125,14.1176470588235,9.61176470588235,77,0,28.589,14.59267,179.6,80.6,14.0625,0,10.9375,10.9375,78.0392156862745,
55,2019-05-19,10:51:50.19751,1.52142,,0,0,-0.1953125,-11.1328125,-0.1953125,0,0,10.9375,14.7,10.9375,-10,0,2585.9375,0,14.28621739,3.7629891,-10.52322829,4.56885,-9.71736739,0,1.490208,10,0,9.84375,-0.78125,14.1176470588235,9.61176470588235,77,0,28.589,14.59267,179.6,80.6,14.0625,0,10.9375,10.9375,78.0392156862745,
56,2019-05-19,10:51:50.21321,1.54437,,0,0,-0.1953125,-11.1328125,-0.1953125,0,0,10.9375,14.7,10.9375,-10,0,2578.125,0,14.28621739,3.7629891,-10.52322829,4.56885,-9.71736739,0,1.490208,10,0,9.84375,-0.78125,14.1176470588235,9.61176470588235,77,0,28.589,14.59267,179.6,80.6,14.0625,0,10.9375,10.9375,78.0392156862745,
57,2019-05-19,10:51:50.24436,1.5732,,0,0,-0.1953125,-11.1328125,-0.1953125,0,0,10.9375,14.7,10.9375,-10,0,2578.125,0,14.28621739,3.859476,-10.42674139,4.686,-9.60021739,0,1.450992,10,0,9.84375,-0.78125,14.1176470588235,9.61176470588235,77,0,28.589,14.51934,179.6,80.6,14.0625,0,9.375,10.9375,78.0392156862745,
58,2019-05-19,10:51:50.25998,1.59691,,0,0,-0.1953125,-11.1328125,-0.1953125,0,0,10.9375,14.7,10.9375,-10,0,2570.3125,0,14.28621739,3.859476,-10.42674139,4.686,-9.60021739,0,1.450992,10,0,9.84375,-0.9375,14.1176470588235,9.61176470588235,77,0,28.589,14.51934,179.6,80.6,14.0625,0,10.9375,10.9375,78.0392156862745,
59,2019-05-19,10:51:50.29122,1.61924,,0,0,-0.1953125,-11.1328125,-0.1953125,0,0,10.9375,14.7,10.9375,-10,0,2562.5,0,14.28621739,3.859476,-10.42674139,4.686,-9.60021739,0,1.411776,10,0,9.84375,-0.9375,14.1176470588235,9.61176470588235,77,0,28.589,14.51934,179.6,80.6,14.0625,0,10.9375,10.9375,78.0392156862745,
60,2019-05-19,10:51:50.30685,1.6369,,0,0,-0.1953125,-11.1328125,-0.1953125,0,0,10.9375,14.7,10.9375,-10,0,2562.5,0,14.28621739,3.859476,-10.42674139,4.686,-9.60021739,0,1.411776,10,0,9.84375,-0.78125,14.1176470588235,9.61176470588235,77,0,28.589,14.51934,179.6,80.6,14.0625,0,9.375,10.9375,78.0392156862745,
61,2019-05-19,10:51:50.33809,1.66213,,0,0,-0.1953125,-11.1328125,-0.1953125,0,0,10.9375,14.7,10.9375,-10,0,2562.5,0,14.28621739,3.9559629,-10.33025449,4.80315,-9.48306739,0,1.490208,10,0,9.84375,-0.78125,14.1176470588235,9.61176470588235,77,0,28.589,14.51934,179.6,80.6,14.0625,0,10.9375,10.9375,78.0392156862745,
62,2019-05-19,10:51:50.35371,1.6821,,0,0,-0.1953125,-11.1328125,-0.1953125,0,0,10.9375,14.7,10.9375,-10,0,2562.5,0,14.28621739,3.9559629,-10.33025449,4.80315,-9.48306739,0,1.490208,10,0,9.84375,-0.78125,14.1176470588235,9.61176470588235,77,0,28.589,14.51934,179.6,80.6,14.0625,0,10.9375,10.9375,78.0392156862745,
63,2019-05-19,10:51:50.36933,1.70673,,0,0,-0.1953125,-11.1328125,-0.1953125,0,0,10.9375,14.7,10.9375,-10,0,2562.5,0,14.28621739,3.859476,-10.42674139,4.686,-9.60021739,0,1.4706,10,0,9.84375,-0.78125,14.1176470588235,9.61176470588235,77,0,28.589,14.59267,179.6,80.6,14.0625,0,10.9375,10.9375,78.0392156862745,
64,2019-05-19,10:51:50.40057,1.72688,,0,0,-0.1953125,-11.1328125,-0.1953125,0,0,10.9375,14.7,10.9375,-10,0,2554.6875,0,14.28621739,3.859476,-10.42674139,4.686,-9.60021739,0,1.4706,10,0,9.84375,-0.9375,14.1176470588235,9.61176470588235,77,0,28.589,14.59267,179.6,80.6,14.0625,0,10.9375,10.9375,78.0392156862745,
65,2019-05-19,10:51:50.43195,1.75669,,0,0,-0.1953125,-11.1328125,-0.1953125,0,0,10.9375,14.7,10.9375,-10,0,2546.875,0,14.28621739,3.9559629,-10.33025449,4.80315,-9.48306739,0,1.4706,10,0,9.84375,-0.9375,14.1176470588235,9.61176470588235,77,0,28.589,14.59267,179.6,80.6,14.0625,0,10.9375,10.9375,78.0392156862745,
66,2019-05-19,10:51:50.44760,1.78134,,0,0,-0.1953125,-11.1328125,-0.1953125,0,0,10.9375,14.7,10.9375,-10,0,2539.0625,0,14.28621739,3.9559629,-10.33025449,4.80315,-9.48306739,0,1.4706,10,0,9.84375,-0.78125,14.1176470588235,9.61176470588235,77,0,28.589,14.51934,179.6,80.6,14.0625,0,10.9375,10.9375,78.0392156862745,
67,2019-05-19,10:51:50.47868,1.80794,,0,0,-0.1953125,-11.1328125,-0.1953125,0,0,10.9375,14.7,10.9375,-10,0,2531.25,0,14.28621739,3.9559629,-10.33025449,4.80315,-9.48306739,0,1.490208,10,0,9.84375,-0.78125,14.1176470588235,9.61176470588235,77,0,28.589,14.51934,179.6,80.6,14.0625,0,10.9375,10.9375,78.0392156862745,
68,2019-05-19,10:51:50.49431,1.82645,,0,0,-0.1953125,-11.1328125,-0.1953125,0,0,10.9375,14.7,10.9375,-10,0,2531.25,0,14.28621739,3.9559629,-10.33025449,4.80315,-9.48306739,0,1.490208,10,0,9.84375,-0.78125,14.1176470588235,9.61176470588235,77,0,28.589,14.51934,179.6,80.6,14.0625,0,10.9375,10.9375,78.0392156862745,
69,2019-05-19,10:51:50.52554,1.85199,,0,0,-0.1953125,-11.1328125,-0.1953125,0,0,10.9375,14.7,10.9375,-10,0,2531.25,0,14.28621739,3.859476,-10.42674139,4.686,-9.60021739,0,1.490208,10,0,9.84375,-0.78125,14.1176470588235,9.61176470588235,77,0,28.589,14.59267,179.6,80.6,14.0625,0,10.9375,10.9375,78.0392156862745,
70,2019-05-19,10:51:50.54117,1.87676,,0,0,-0.1953125,-11.1328125,-0.1953125,0,0,10.9375,14.7,10.9375,-10,0,2523.4375,0,14.28621739,3.859476,-10.42674139,4.686,-9.60021739,0,1.490208,10,0,9.84375,-0.78125,14.1176470588235,9.61176470588235,77,0,28.589,14.59267,179.6,80.6,14.0625,0,10.9375,10.9375,78.0392156862745,
71,2019-05-19,10:51:50.57241,1.90528,,0,0,-0.1953125,-11.1328125,-0.1953125,0,0,10.9375,14.7,10.9375,-10,0,2523.4375,0,14.28621739,3.9559629,-10.33025449,4.80315,-9.48306739,0,1.4706,10,0,9.84375,-0.78125,14.1176470588235,9.61176470588235,77,0,28.589,14.59267,179.6,80.6,14.0625,0,10.9375,10.9375,78.0392156862745,
72,2019-05-19,10:51:50.60381,1.92783,,0,0,-0.1953125,-11.1328125,-0.1953125,0,0,10.9375,14.7,10.9375,-10,0,2515.625,0,14.28621739,3.9559629,-10.33025449,4.80315,-9.48306739,0,1.4706,10,0,9.84375,-0.9375,14.1176470588235,9.61176470588235,77,0,28.589,14.44601,179.6,80.6,14.0625,0,10.9375,10.9375,78.0392156862745,
73,2019-05-19,10:51:50.61928,1.94793,,0,0,-0.1953125,-11.1328125,-0.1953125,0,0,10.9375,14.7,10.9375,-10,0,2515.625,0,14.28621739,3.9559629,-10.33025449,4.80315,-9.48306739,0,1.4706,10,0,9.84375,-0.9375,14.1176470588235,9.61176470588235,77,0,28.589,14.44601,179.6,80.6,14.0625,0,9.375,10.9375,78.0392156862745,
74,2019-05-19,10:51:50.63504,1.96626,,0,0,-0.1953125,-11.1328125,-0.1953125,0,0,10.9375,14.7,10.9375,-10,0,2515.625,0,14.28621739,3.9559629,-10.33025449,4.80315,-9.48306739,0,1.4706,10,0,9.84375,-0.78125,14.1176470588235,9.61176470588235,77,0,28.589,14.44601,179.6,80.6,14.0625,0,10.9375,10.9375,78.0392156862745,